FW2285 Weather Reports


Display with metric or nautical units.
time (UTC)temp
F
wind
direction
speed
MPH
gust
MPH
rain 1hr
in
rain 24hr
in
rain mn
in
humidity
%
barometer
mb
20260903091513 74 119 0.0 0.0 0.00 0.00 0.00 61 1012.1
20260903090008 74 119 0.0 0.0 0.00 0.00 0.00 61 1012.3
20260903084507 74 119 0.0 0.0 0.00 0.00 0.00 61 1012.4
20260903083006 74 119 0.0 0.0 0.00 0.00 0.00 61 1012.1
20260903081511 74 119 0.0 0.0 0.00 0.00 0.00 61 1012.0
20260903080105 74 119 0.0 0.0 0.00 0.00 0.00 61 1012.1
20260903074503 75 119 0.0 0.0 0.00 0.00 0.00 61 1012.2
20260903073059 75 119 0.0 0.0 0.00 0.00 0.00 60 1012.2
20260903071607 75 119 0.0 0.0 0.00 0.00 0.00 60 1012.2
20260903064556 76 119 0.0 0.0 0.00 0.00 0.00 61 1012.3
20260903063119 76 119 0.0 0.0 0.00 0.00 0.00 60 1012.2
20260903061554 76 119 0.0 0.0 0.00 0.00 0.00 59 1012.4
20260903060054 76 119 0.0 0.0 0.00 0.00 0.00 58 1012.4
20260903054550 77 119 0.0 0.0 0.00 0.00 0.00 58 1012.3
20260903053048 77 119 0.0 0.0 0.00 0.00 0.00 58 1012.2
20260903051548 78 119 0.0 0.0 0.00 0.00 0.00 57 1012.3
20260903050105 78 119 0.0 0.0 0.00 0.00 0.00 56 1012.2
20260903044543 79 119 0.0 0.0 0.00 0.00 0.00 55 1012.3
20260903043044 79 119 0.0 0.0 0.00 0.00 0.00 54 1012.2
20260903041542 80 119 0.0 0.0 0.00 0.00 0.00 53 1012.2
20260903040048 80 119 0.0 0.0 0.00 0.00 0.00 52 1012.4
20260903034541 81 119 0.0 0.0 0.00 0.00 0.00 51 1012.3
20260903033041 81 119 0.0 0.0 0.00 0.00 0.00 50 1012.3
20260903031541 82 119 0.0 0.0 0.00 0.00 0.00 49 1012.4
20260903030040 83 119 0.0 0.0 0.00 0.00 0.00 48 1012.3
20260903024539 83 119 0.0 0.0 0.00 0.00 0.00 47 1012.3
20260903023042 84 119 0.0 0.0 0.00 0.00 0.00 45 1012.1
20260903021539 85 119 0.0 0.0 0.00 0.00 0.00 44 1011.9
20260903020044 86 119 0.0 0.0 0.00 0.00 0.00 43 1011.8
20260903014545 87 119 0.0 0.0 0.00 0.00 0.00 41 1011.7
20260903013038 88 119 0.0 0.0 0.00 0.00 0.00 40 1011.5
20260903011554 90 119 0.0 0.0 0.00 0.00 0.00 38 1011.3
20260903010037 91 119 0.0 0.0 0.00 0.00 0.00 35 1011.2
20260903004539 91 119 0.0 1.0 0.00 0.00 0.00 35 1011.2
20260903003036 92 119 0.0 1.0 0.00 0.00 0.00 35 1011.1
20260903001536 94 119 0.0 3.0 0.00 0.00 0.00 31 1011.1
20260903000036 94 115 1.0 4.0 0.00 0.00 0.00 30 1011.2
20260902234539 95 148 2.0 4.0 0.00 0.00 0.00 29 1011.2
20260902233033 95 138 1.0 4.0 0.00 0.00 0.00 30 1011.3
20260902231547 96 112 1.0 4.0 0.00 0.00 0.00 28 1011.4
20260902230034 96 132 0.0 7.0 0.00 0.00 0.00 29 1011.4
20260902224531 96 102 2.0 4.0 0.00 0.00 0.00 28 1011.3
20260902223030 96 140 0.0 9.0 0.00 0.00 0.00 29 1011.4
20260902221530 97 162 0.0 6.0 0.00 0.00 0.00 27 1011.3
20260902220030 97 109 2.0 6.0 0.00 0.00 0.00 27 1011.4
20260902214530 97 94 2.0 5.0 0.00 0.00 0.00 27 1011.5
20260902213025 97 96 1.0 5.0 0.00 0.00 0.00 28 1011.7
20260902211530 98 290 2.0 9.0 0.00 0.00 0.00 28 1011.9
20260902210025 98 11 1.0 4.0 0.00 0.00 0.00 32 1012.0
20260902204521 98 119 1.0 7.0 0.00 0.00 0.00 30 1012.3
20260902203019 97 123 1.0 6.0 0.00 0.00 0.00 30 1012.3
20260902201523 98 126 1.0 6.0 0.00 0.00 0.00 28 1012.4
20260902200017 97 103 0.0 4.0 0.00 0.00 0.00 31 1012.8
20260902194516 98 78 0.0 4.0 0.00 0.00 0.00 31 1012.9
20260902193012 98 126 1.0 6.0 0.00 0.00 0.00 31 1013.0
20260902191511 98 138 0.0 8.0 0.00 0.00 0.00 33 1013.1
20260902190010 97 105 1.0 8.0 0.00 0.00 0.00 35 1013.5
20260902184509 97 306 1.0 3.0 0.00 0.00 0.00 35 1013.6
20260902183013 96 113 1.0 5.0 0.00 0.00 0.00 32 1013.8
20260902181507 97 279 0.0 9.0 0.00 0.00 0.00 33 1013.9
20260902180007 97 263 2.0 8.0 0.00 0.00 0.00 36 1014.2
20260902174505 96 216 2.0 6.0 0.00 0.00 0.00 36 1014.3
20260902173057 95 263 3.0 7.0 0.00 0.00 0.00 37 1014.5
20260902171555 95 236 0.0 9.0 0.00 0.00 0.00 39 1014.7
20260902170051 93 97 1.0 7.0 0.00 0.00 0.00 39 1014.8
20260902164548 92 95 1.0 10.0 0.00 0.00 0.00 41 1014.8
20260902163055 91 180 0.0 4.0 0.00 0.00 0.00 43 1015.0
20260902161550 90 236 2.0 10.0 0.00 0.00 0.00 43 1015.0
20260902160037 89 254 2.0 9.0 0.00 0.00 0.00 44 1015.0
20260902154535 89 313 0.0 4.0 0.00 0.00 0.00 46 1014.9
20260902153031 87 230 0.0 9.0 0.00 0.00 0.00 47 1014.9
20260902151530 86 281 0.0 8.0 0.00 0.00 0.00 46 1015.0
20260902150024 85 107 1.0 4.0 0.00 0.00 0.00 49 1015.0
20260902144530 84 113 0.0 4.0 0.00 0.00 0.00 51 1015.0
20260902143017 82 138 0.0 5.0 0.00 0.00 0.00 52 1015.0
20260902141519 81 163 1.0 3.0 0.00 0.00 0.00 53 1015.1
20260902140016 79 217 0.0 4.0 0.00 0.00 0.00 56 1015.1
20260902134506 77 145 0.0 2.0 0.00 0.00 0.00 59 1015.1
20260902133100 76 150 0.0 1.0 0.00 0.00 0.00 61 1015.0
20260902131558 74 150 0.0 1.0 0.00 0.00 0.00 62 1015.2
20260902124602 72 150 0.0 0.0 0.00 0.00 0.00 63 1014.9
20260902123102 72 150 0.0 0.0 0.00 0.00 0.00 63 1014.9
20260902121607 72 150 0.0 0.0 0.00 0.00 0.00 63 1014.8
20260902120055 71 150 0.0 0.0 0.00 0.00 0.00 62 1014.8
20260902114554 71 150 0.0 0.0 0.00 0.00 0.00 62 1014.6
20260902113058 71 150 0.0 0.0 0.00 0.00 0.00 62 1014.6
20260902111553 72 150 0.0 0.0 0.00 0.00 0.00 62 1014.6
20260902110051 72 150 0.0 0.0 0.00 0.00 0.00 62 1014.5
20260902104553 72 150 0.0 0.0 0.00 0.00 0.00 61 1014.4
20260902103047 72 150 0.0 0.0 0.00 0.00 0.00 61 1014.5
20260902101547 72 150 0.0 0.0 0.00 0.00 0.00 61 1014.3
20260902094543 72 150 0.0 0.0 0.00 0.00 0.00 61 1014.2
20260902093043 72 150 0.0 0.0 0.00 0.00 0.00 61 1014.0